| time (UTC) | temp F | wind direction | speed MPH | gust MPH | rain 1hr in | rain 24hr in | rain mn in | humidity % | barometer mb |
| 20260903061513 | 70 | 212 | 1.0 | 5.0 | 0.00 | 0.35 | 0.00 | 99 | 1012.7 |
| 20260903061313 | 70 | 112 | 1.0 | 5.0 | 0.00 | 0.35 | 0.00 | 99 | 1012.7 |
| 20260903061112 | 70 | 221 | 2.0 | 5.0 | 0.00 | 0.35 | 0.00 | 99 | 1012.7 |
| 20260903060912 | 70 | 254 | 2.0 | 5.0 | 0.00 | 0.35 | 0.00 | 99 | 1012.7 |
| 20260903060712 | 70 | 240 | 2.0 | 5.0 | 0.00 | 0.35 | 0.00 | 99 | 1012.6 |
| 20260903060512 | 70 | 245 | 1.0 | 5.0 | 0.00 | 0.35 | 0.00 | 99 | 1012.7 |
| 20260903060311 | 70 | 234 | 1.0 | 5.0 | 0.00 | 0.35 | 0.00 | 99 | 1012.7 |
| 20260903060111 | 70 | 69 | 1.0 | 4.0 | 0.00 | 0.35 | 0.00 | 99 | 1012.6 |
| 20260903055911 | 70 | 183 | 1.0 | 4.0 | 0.00 | 0.35 | 0.00 | 99 | 1012.7 |
| 20260903003217 | 68 | 209 | 2.0 | 6.0 | 0.05 | 0.34 | 0.34 | 98 | 1012.9 |
| 20260903003016 | 68 | 174 | 2.0 | 6.0 | 0.05 | 0.34 | 0.34 | 98 | 1012.9 |
| 20260903002816 | 68 | 204 | 1.0 | 4.0 | 0.05 | 0.34 | 0.34 | 98 | 1012.9 |
| 20260903002616 | 68 | 239 | 1.0 | 4.0 | 0.05 | 0.34 | 0.34 | 97 | 1013.0 |
| 20260903002415 | 68 | 240 | 1.0 | 4.0 | 0.05 | 0.34 | 0.34 | 97 | 1012.8 |
| 20260903002215 | 68 | 235 | 0.0 | 3.0 | 0.05 | 0.34 | 0.34 | 97 | 1012.4 |
| 20260903002015 | 69 | 210 | 0.0 | 3.0 | 0.03 | 0.32 | 0.32 | 97 | 1012.2 |
| 20260903001815 | 68 | 298 | 0.0 | 3.0 | 0.00 | 0.29 | 0.29 | 97 | 1012.5 |
| 20260903001614 | 68 | 276 | 1.0 | 3.0 | 0.00 | 0.29 | 0.29 | 97 | 1012.3 |
| 20260903001414 | 68 | 239 | 1.0 | 3.0 | 0.00 | 0.29 | 0.29 | 97 | 1011.7 |
| 20260903001214 | 68 | 235 | 0.0 | 3.0 | 0.00 | 0.29 | 0.29 | 96 | 1011.9 |
| 20260903001013 | 68 | 215 | 1.0 | 4.0 | 0.00 | 0.29 | 0.29 | 96 | 1012.2 |
| 20260903000813 | 68 | 228 | 0.0 | 4.0 | 0.00 | 0.29 | 0.29 | 96 | 1012.5 |
| 20260903000613 | 68 | 249 | 0.0 | 4.0 | 0.00 | 0.29 | 0.29 | 96 | 1012.6 |
| 20260903000412 | 68 | 238 | 1.0 | 4.0 | 0.00 | 0.29 | 0.29 | 96 | 1012.6 |
| 20260903000212 | 68 | 224 | 1.0 | 3.0 | 0.00 | 0.29 | 0.29 | 96 | 1012.7 |
| 20260903000012 | 68 | 248 | 1.0 | 4.0 | 0.00 | 0.29 | 0.29 | 96 | 1012.7 |
| 20260902235811 | 68 | 266 | 0.0 | 4.0 | 0.00 | 0.29 | 0.29 | 96 | 1012.8 |
| 20260902235611 | 68 | 73 | 0.0 | 4.0 | 0.00 | 0.29 | 0.29 | 97 | 1012.8 |
| 20260902235411 | 68 | 194 | 1.0 | 4.0 | 0.01 | 0.29 | 0.29 | 97 | 1012.7 |
| 20260902235210 | 68 | 262 | 0.0 | 4.0 | 0.01 | 0.29 | 0.29 | 97 | 1012.7 |
| 20260902235010 | 68 | 250 | 0.0 | 3.0 | 0.01 | 0.29 | 0.29 | 97 | 1012.7 |
| 20260902234810 | 68 | 229 | 0.0 | 4.0 | 0.01 | 0.29 | 0.29 | 97 | 1012.6 |
| 20260902234610 | 68 | 237 | 1.0 | 4.0 | 0.02 | 0.29 | 0.29 | 97 | 1012.6 |
| 20260902234409 | 68 | 237 | 1.0 | 6.0 | 0.02 | 0.29 | 0.29 | 97 | 1012.5 |
| 20260902234209 | 68 | 224 | 1.0 | 6.0 | 0.02 | 0.29 | 0.29 | 97 | 1012.6 |
| 20260902234009 | 68 | 178 | 1.0 | 6.0 | 0.02 | 0.29 | 0.29 | 97 | 1012.6 |
| 20260902233808 | 68 | 201 | 1.0 | 6.0 | 0.02 | 0.29 | 0.29 | 97 | 1012.6 |
| 20260902233608 | 68 | 197 | 2.0 | 6.0 | 0.02 | 0.29 | 0.29 | 97 | 1012.6 |
| 20260902233408 | 68 | 217 | 2.0 | 5.0 | 0.02 | 0.29 | 0.29 | 98 | 1012.6 |
| 20260902233207 | 68 | 211 | 2.0 | 7.0 | 0.03 | 0.29 | 0.29 | 98 | 1012.6 |
| 20260902233007 | 68 | 205 | 1.0 | 7.0 | 0.03 | 0.29 | 0.29 | 98 | 1012.6 |
| 20260902232807 | 68 | 234 | 2.0 | 7.0 | 0.03 | 0.29 | 0.29 | 98 | 1012.8 |
| 20260902232606 | 68 | 232 | 2.0 | 7.0 | 0.03 | 0.29 | 0.29 | 98 | 1012.8 |
| 20260902232406 | 68 | 229 | 2.0 | 7.0 | 0.03 | 0.29 | 0.29 | 98 | 1013.0 |
| 20260902232206 | 68 | 220 | 2.0 | 7.0 | 0.04 | 0.29 | 0.29 | 98 | 1013.0 |
| 20260902232006 | 68 | 225 | 2.0 | 7.0 | 0.04 | 0.29 | 0.29 | 98 | 1013.1 |
| 20260902231805 | 68 | 190 | 2.0 | 7.0 | 0.04 | 0.29 | 0.29 | 98 | 1012.9 |
| 20260902231605 | 68 | 216 | 1.0 | 6.0 | 0.04 | 0.29 | 0.29 | 98 | 1012.9 |
| 20260902231405 | 69 | 217 | 1.0 | 9.0 | 0.06 | 0.29 | 0.29 | 98 | 1012.9 |
| 20260902231204 | 69 | 229 | 0.0 | 9.0 | 0.07 | 0.29 | 0.29 | 98 | 1012.9 |
| 20260902231004 | 69 | 211 | 1.0 | 9.0 | 0.09 | 0.29 | 0.29 | 98 | 1013.1 |
| 20260902230804 | 69 | 227 | 1.0 | 9.0 | 0.16 | 0.29 | 0.29 | 98 | 1013.1 |
| 20260902230603 | 69 | 223 | 2.0 | 9.0 | 0.22 | 0.29 | 0.29 | 98 | 1013.1 |
| 20260902230403 | 69 | 217 | 2.0 | 6.0 | 0.24 | 0.29 | 0.29 | 97 | 1012.9 |
| 20260902230203 | 69 | 198 | 1.0 | 6.0 | 0.24 | 0.29 | 0.29 | 97 | 1012.8 |
| 20260902230002 | 69 | 222 | 1.0 | 6.0 | 0.24 | 0.29 | 0.29 | 97 | 1013.0 |
| 20260902225802 | 69 | 221 | 2.0 | 6.0 | 0.24 | 0.29 | 0.29 | 97 | 1013.1 |
| 20260902225602 | 69 | 211 | 1.0 | 6.0 | 0.24 | 0.29 | 0.29 | 97 | 1013.3 |
| 20260902225401 | 70 | 192 | 1.0 | 5.0 | 0.23 | 0.28 | 0.28 | 97 | 1013.4 |
| 20260902225201 | 70 | 225 | 1.0 | 5.0 | 0.23 | 0.28 | 0.28 | 97 | 1013.5 |
| 20260902225001 | 70 | 227 | 1.0 | 5.0 | 0.23 | 0.28 | 0.28 | 97 | 1013.6 |
| 20260902224800 | 70 | 221 | 0.0 | 5.0 | 0.22 | 0.27 | 0.27 | 97 | 1013.7 |
| 20260902224600 | 70 | 150 | 0.0 | 3.0 | 0.22 | 0.27 | 0.27 | 97 | 1013.7 |
| 20260902224400 | 70 | 163 | 0.0 | 3.0 | 0.22 | 0.27 | 0.27 | 97 | 1013.7 |
| 20260902224200 | 70 | 91 | 0.0 | 4.0 | 0.22 | 0.27 | 0.27 | 96 | 1013.8 |
| 20260902223959 | 70 | 64 | 0.0 | 12.0 | 0.22 | 0.27 | 0.27 | 96 | 1013.8 |
| 20260902223759 | 70 | 104 | 0.0 | 12.0 | 0.22 | 0.27 | 0.27 | 96 | 1013.9 |
| 20260902223559 | 70 | 90 | 1.0 | 12.0 | 0.22 | 0.27 | 0.27 | 96 | 1013.8 |
| 20260902223358 | 70 | 360 | 1.0 | 12.0 | 0.21 | 0.26 | 0.26 | 95 | 1013.9 |
| 20260902223158 | 70 | 4 | 2.0 | 12.0 | 0.21 | 0.26 | 0.26 | 95 | 1014.1 |
| 20260902222958 | 70 | 60 | 2.0 | 12.0 | 0.21 | 0.26 | 0.26 | 95 | 1014.3 |
| 20260902222757 | 70 | 358 | 3.0 | 13.0 | 0.21 | 0.26 | 0.26 | 95 | 1014.5 |
| 20260902222557 | 70 | 49 | 3.0 | 13.0 | 0.21 | 0.26 | 0.26 | 94 | 1014.4 |
| 20260902222357 | 70 | 211 | 4.0 | 13.0 | 0.20 | 0.25 | 0.25 | 94 | 1014.3 |
| 20260902222156 | 70 | 96 | 4.0 | 13.0 | 0.20 | 0.25 | 0.25 | 93 | 1014.1 |
| 20260902221956 | 70 | 179 | 5.0 | 13.0 | 0.20 | 0.25 | 0.25 | 92 | 1014.1 |
| 20260902221555 | 71 | 122 | 5.0 | 29.0 | 0.19 | 0.24 | 0.24 | 91 | 1014.5 |
| 20260902221355 | 72 | 92 | 6.0 | 29.0 | 0.18 | 0.23 | 0.23 | 90 | 1014.1 |
| 20260902221155 | 74 | 88 | 8.0 | 29.0 | 0.16 | 0.21 | 0.21 | 86 | 1015.0 |
| 20260902220955 | 76 | 106 | 10.0 | 29.0 | 0.11 | 0.16 | 0.16 | 83 | 1015.7 |
| 20260902220754 | 79 | 40 | 7.0 | 29.0 | 0.04 | 0.09 | 0.09 | 83 | 1016.2 |
| 20260902220554 | 81 | 333 | 4.0 | 12.0 | 0.00 | 0.05 | 0.05 | 87 | 1016.0 |
| 20260902220354 | 81 | 251 | 3.0 | 8.0 | 0.00 | 0.05 | 0.05 | 87 | 1014.8 |
| 20260902220153 | 81 | 185 | 2.0 | 7.0 | 0.00 | 0.05 | 0.05 | 86 | 1014.3 |
| 20260902215953 | 81 | 62 | 1.0 | 4.0 | 0.00 | 0.05 | 0.05 | 86 | 1013.8 |
| 20260902215753 | 81 | 74 | 1.0 | 4.0 | 0.00 | 0.05 | 0.05 | 86 | 1013.5 |
| 20260902215552 | 81 | 105 | 1.0 | 4.0 | 0.00 | 0.05 | 0.05 | 85 | 1013.2 |
| 20260902215352 | 81 | 139 | 1.0 | 5.0 | 0.00 | 0.05 | 0.05 | 85 | 1013.0 |
| 20260902215152 | 81 | 162 | 1.0 | 5.0 | 0.00 | 0.05 | 0.05 | 85 | 1012.6 |
| 20260902214951 | 81 | 244 | 1.0 | 6.0 | 0.00 | 0.05 | 0.05 | 85 | 1012.2 |
| 20260902214751 | 81 | 264 | 1.0 | 7.0 | 0.00 | 0.05 | 0.05 | 84 | 1012.1 |
| 20260902214551 | 81 | 219 | 2.0 | 8.0 | 0.00 | 0.05 | 0.05 | 84 | 1011.7 |
| 20260902214350 | 81 | 237 | 3.0 | 8.0 | 0.00 | 0.05 | 0.05 | 83 | 1011.3 |
| 20260902214150 | 82 | 229 | 3.0 | 8.0 | 0.00 | 0.05 | 0.05 | 83 | 1011.1 |
| 20260902213950 | 82 | 208 | 3.0 | 8.0 | 0.00 | 0.05 | 0.05 | 82 | 1010.6 |
| 20260902213750 | 82 | 196 | 3.0 | 8.0 | 0.00 | 0.05 | 0.05 | 82 | 1010.6 |
| 20260902213549 | 82 | 181 | 3.0 | 7.0 | 0.00 | 0.05 | 0.05 | 82 | 1010.9 |
| 20260902213349 | 82 | 206 | 4.0 | 7.0 | 0.00 | 0.05 | 0.05 | 82 | 1010.9 |
| 20260902213149 | 82 | 212 | 3.0 | 7.0 | 0.00 | 0.05 | 0.05 | 82 | 1010.9 |
| 20260902212948 | 83 | 230 | 3.0 | 7.0 | 0.00 | 0.05 | 0.05 | 82 | 1011.2 |
| 20260902212748 | 83 | 224 | 3.0 | 7.0 | 0.00 | 0.05 | 0.05 | 82 | 1011.1 |
| 20260902212548 | 83 | 221 | 3.0 | 7.0 | 0.00 | 0.05 | 0.05 | 82 | 1011.1 |
| 20260902212347 | 83 | 234 | 3.0 | 7.0 | 0.00 | 0.05 | 0.05 | 82 | 1011.0 |
| 20260902212147 | 83 | 237 | 3.0 | 7.0 | 0.00 | 0.05 | 0.05 | 83 | 1011.0 |
| 20260902211947 | 83 | 234 | 3.0 | 7.0 | 0.00 | 0.05 | 0.05 | 83 | 1010.9 |
| 20260902211746 | 84 | 224 | 3.0 | 7.0 | 0.00 | 0.05 | 0.05 | 83 | 1011.0 |
| 20260902211546 | 84 | 234 | 3.0 | 10.0 | 0.00 | 0.05 | 0.05 | 82 | 1011.0 |
| 20260902211346 | 84 | 230 | 2.0 | 10.0 | 0.00 | 0.05 | 0.05 | 82 | 1011.0 |
| 20260902211145 | 84 | 235 | 3.0 | 10.0 | 0.00 | 0.05 | 0.05 | 82 | 1010.9 |
| 20260902210945 | 84 | 227 | 4.0 | 10.0 | 0.00 | 0.05 | 0.05 | 82 | 1010.8 |
| 20260902210745 | 84 | 217 | 5.0 | 10.0 | 0.00 | 0.05 | 0.05 | 82 | 1010.7 |
| 20260902210545 | 84 | 217 | 4.0 | 10.0 | 0.00 | 0.05 | 0.05 | 82 | 1010.7 |
| 20260902210344 | 85 | 228 | 3.0 | 8.0 | 0.00 | 0.05 | 0.05 | 83 | 1010.9 |
| 20260902210144 | 85 | 222 | 3.0 | 8.0 | 0.00 | 0.05 | 0.05 | 83 | 1011.0 |
| 20260902205944 | 85 | 240 | 3.0 | 8.0 | 0.00 | 0.05 | 0.05 | 84 | 1011.1 |
| 20260902205743 | 85 | 202 | 2.0 | 6.0 | 0.00 | 0.05 | 0.05 | 84 | 1011.1 |
| 20260902205543 | 85 | 198 | 2.0 | 7.0 | 0.00 | 0.05 | 0.05 | 83 | 1011.2 |
| 20260902205343 | 86 | 231 | 3.0 | 7.0 | 0.00 | 0.05 | 0.05 | 83 | 1011.2 |
| 20260902205142 | 86 | 222 | 3.0 | 9.0 | 0.00 | 0.05 | 0.05 | 82 | 1011.1 |
| 20260902204942 | 86 | 226 | 3.0 | 9.0 | 0.00 | 0.05 | 0.05 | 81 | 1011.1 |
| 20260902204742 | 86 | 233 | 2.0 | 9.0 | 0.00 | 0.05 | 0.05 | 81 | 1011.2 |
| 20260902204541 | 86 | 228 | 3.0 | 9.0 | 0.00 | 0.05 | 0.05 | 82 | 1011.3 |
| 20260902204341 | 86 | 201 | 4.0 | 9.0 | 0.00 | 0.05 | 0.05 | 82 | 1011.4 |
| 20260902204141 | 86 | 201 | 4.0 | 9.0 | 0.00 | 0.05 | 0.05 | 82 | 1011.5 |
| 20260902203940 | 86 | 226 | 2.0 | 8.0 | 0.00 | 0.05 | 0.05 | 82 | 1011.5 |
| 20260902203740 | 86 | 202 | 3.0 | 8.0 | 0.00 | 0.05 | 0.05 | 83 | 1011.5 |
| 20260902203540 | 86 | 218 | 3.0 | 9.0 | 0.00 | 0.05 | 0.05 | 83 | 1011.6 |
| 20260902203340 | 86 | 237 | 3.0 | 9.0 | 0.00 | 0.05 | 0.05 | 82 | 1011.7 |
| 20260902203139 | 86 | 228 | 3.0 | 10.0 | 0.00 | 0.05 | 0.05 | 82 | 1011.8 |
| 20260902202939 | 86 | 209 | 4.0 | 10.0 | 0.00 | 0.05 | 0.05 | 82 | 1011.7 |
| 20260902202739 | 86 | 208 | 4.0 | 10.0 | 0.00 | 0.05 | 0.05 | 82 | 1011.8 |
| 20260902202538 | 86 | 236 | 3.0 | 10.0 | 0.00 | 0.05 | 0.05 | 83 | 1011.8 |
| 20260902202338 | 86 | 236 | 5.0 | 10.0 | 0.00 | 0.05 | 0.05 | 83 | 1011.8 |
| 20260902202138 | 86 | 233 | 4.0 | 10.0 | 0.00 | 0.05 | 0.05 | 82 | 1011.9 |
| 20260902201937 | 86 | 227 | 4.0 | 7.0 | 0.00 | 0.05 | 0.05 | 82 | 1011.9 |
| 20260902201737 | 86 | 231 | 3.0 | 12.0 | 0.00 | 0.05 | 0.05 | 84 | 1011.8 |
| 20260902201537 | 86 | 221 | 3.0 | 12.0 | 0.00 | 0.05 | 0.05 | 84 | 1011.7 |
| 20260902201336 | 86 | 227 | 4.0 | 12.0 | 0.00 | 0.05 | 0.05 | 84 | 1011.8 |
| 20260902201136 | 86 | 213 | 5.0 | 12.0 | 0.00 | 0.05 | 0.05 | 84 | 1011.8 |
| 20260902200936 | 86 | 215 | 5.0 | 12.0 | 0.00 | 0.05 | 0.05 | 84 | 1011.9 |
| 20260902200735 | 86 | 213 | 4.0 | 10.0 | 0.00 | 0.05 | 0.05 | 84 | 1012.0 |
| 20260902200535 | 86 | 215 | 4.0 | 10.0 | 0.00 | 0.05 | 0.05 | 84 | 1012.2 |
| 20260902200335 | 85 | 208 | 3.0 | 10.0 | 0.00 | 0.05 | 0.05 | 85 | 1012.2 |
| 20260902200134 | 85 | 220 | 4.0 | 7.0 | 0.00 | 0.05 | 0.05 | 85 | 1012.3 |
| 20260902195934 | 85 | 225 | 4.0 | 7.0 | 0.00 | 0.05 | 0.05 | 86 | 1012.4 |
| 20260902195734 | 85 | 215 | 4.0 | 7.0 | 0.00 | 0.05 | 0.05 | 86 | 1012.5 |
| 20260902195534 | 84 | 216 | 3.0 | 7.0 | 0.00 | 0.05 | 0.05 | 86 | 1012.4 |
| 20260902195333 | 84 | 217 | 3.0 | 7.0 | 0.00 | 0.05 | 0.05 | 88 | 1012.4 |
| 20260902195133 | 83 | 223 | 2.0 | 7.0 | 0.00 | 0.05 | 0.05 | 88 | 1012.6 |
| 20260902194933 | 83 | 219 | 3.0 | 6.0 | 0.00 | 0.05 | 0.05 | 88 | 1012.7 |
| 20260902194732 | 83 | 220 | 3.0 | 6.0 | 0.00 | 0.05 | 0.05 | 89 | 1012.6 |
| 20260902194532 | 82 | 227 | 3.0 | 6.0 | 0.00 | 0.05 | 0.05 | 89 | 1012.7 |
| 20260902194332 | 82 | 222 | 3.0 | 6.0 | 0.00 | 0.05 | 0.05 | 89 | 1012.8 |
| 20260902194131 | 82 | 227 | 3.0 | 6.0 | 0.00 | 0.05 | 0.05 | 89 | 1012.8 |
| 20260902193931 | 82 | 221 | 3.0 | 6.0 | 0.00 | 0.05 | 0.05 | 89 | 1012.8 |
| 20260902193731 | 82 | 223 | 3.0 | 5.0 | 0.00 | 0.05 | 0.05 | 89 | 1012.9 |
| 20260902193530 | 82 | 243 | 2.0 | 5.0 | 0.00 | 0.05 | 0.05 | 89 | 1013.1 |
| 20260902193330 | 82 | 259 | 0.0 | 5.0 | 0.00 | 0.05 | 0.05 | 89 | 1013.2 |
| 20260902193130 | 82 | 252 | 1.0 | 5.0 | 0.00 | 0.05 | 0.05 | 89 | 1013.2 |
| 20260902192930 | 82 | 234 | 1.0 | 5.0 | 0.00 | 0.05 | 0.05 | 88 | 1013.2 |
| 20260902192729 | 82 | 237 | 1.0 | 5.0 | 0.00 | 0.05 | 0.05 | 88 | 1013.3 |
| 20260902192529 | 82 | 207 | 1.0 | 5.0 | 0.00 | 0.05 | 0.05 | 88 | 1013.4 |
| 20260902192329 | 82 | 194 | 1.0 | 5.0 | 0.00 | 0.05 | 0.05 | 88 | 1013.5 |
| 20260902192128 | 82 | 231 | 2.0 | 5.0 | 0.00 | 0.05 | 0.05 | 88 | 1013.5 |
| 20260902191928 | 82 | 238 | 0.0 | 5.0 | 0.00 | 0.05 | 0.05 | 88 | 1013.5 |
| 20260902191728 | 83 | 226 | 0.0 | 6.0 | 0.00 | 0.05 | 0.05 | 88 | 1013.5 |
| 20260902191527 | 83 | 223 | 1.0 | 6.0 | 0.00 | 0.05 | 0.05 | 88 | 1013.5 |
| 20260902191327 | 83 | 219 | 1.0 | 6.0 | 0.00 | 0.05 | 0.05 | 87 | 1013.6 |
| 20260902191127 | 83 | 228 | 1.0 | 6.0 | 0.00 | 0.05 | 0.05 | 87 | 1013.7 |
| 20260902190926 | 83 | 230 | 2.0 | 6.0 | 0.00 | 0.05 | 0.05 | 87 | 1013.6 |
| 20260902190726 | 83 | 215 | 1.0 | 4.0 | 0.00 | 0.05 | 0.05 | 86 | 1013.7 |
| 20260902190526 | 83 | 221 | 1.0 | 4.0 | 0.00 | 0.05 | 0.05 | 86 | 1013.6 |
| 20260902190326 | 83 | 216 | 2.0 | 4.0 | 0.00 | 0.05 | 0.05 | 86 | 1013.6 |
| 20260902190125 | 83 | 240 | 2.0 | 5.0 | 0.00 | 0.05 | 0.05 | 86 | 1013.5 |
| 20260902185925 | 84 | 247 | 1.0 | 5.0 | 0.00 | 0.05 | 0.05 | 86 | 1013.6 |
| 20260902185725 | 84 | 252 | 2.0 | 5.0 | 0.00 | 0.05 | 0.05 | 85 | 1013.6 |
| 20260902185524 | 84 | 240 | 2.0 | 5.0 | 0.00 | 0.05 | 0.05 | 85 | 1013.7 |
| 20260902185324 | 84 | 208 | 2.0 | 4.0 | 0.00 | 0.05 | 0.05 | 85 | 1013.9 |
| 20260902185124 | 84 | 226 | 2.0 | 5.0 | 0.00 | 0.05 | 0.05 | 85 | 1013.9 |
| 20260902184923 | 84 | 232 | 2.0 | 5.0 | 0.00 | 0.05 | 0.05 | 84 | 1013.9 |
| 20260902184723 | 84 | 168 | 1.0 | 5.0 | 0.00 | 0.05 | 0.05 | 84 | 1013.8 |
| 20260902184523 | 85 | 196 | 2.0 | 7.0 | 0.00 | 0.05 | 0.05 | 84 | 1013.8 |
| 20260902184322 | 85 | 208 | 2.0 | 7.0 | 0.00 | 0.05 | 0.05 | 83 | 1013.8 |
| 20260902184122 | 85 | 223 | 2.0 | 7.0 | 0.00 | 0.05 | 0.05 | 83 | 1013.8 |
| 20260902183922 | 85 | 216 | 3.0 | 7.0 | 0.00 | 0.05 | 0.05 | 83 | 1013.7 |
| 20260902183721 | 86 | 196 | 4.0 | 7.0 | 0.00 | 0.05 | 0.05 | 82 | 1013.7 |
| 20260902183521 | 86 | 215 | 2.0 | 7.0 | 0.00 | 0.05 | 0.05 | 82 | 1013.6 |
| 20260902183321 | 86 | 254 | 2.0 | 6.0 | 0.00 | 0.05 | 0.05 | 82 | 1013.6 |
| 20260902183121 | 86 | 229 | 2.0 | 6.0 | 0.00 | 0.05 | 0.05 | 81 | 1013.7 |
| 20260902182920 | 86 | 201 | 2.0 | 6.0 | 0.00 | 0.05 | 0.05 | 81 | 1013.8 |
| 20260902182720 | 87 | 208 | 3.0 | 6.0 | 0.00 | 0.05 | 0.05 | 80 | 1013.9 |
| 20260902182520 | 87 | 236 | 2.0 | 6.0 | 0.00 | 0.05 | 0.05 | 80 | 1013.9 |
| 20260902182319 | 87 | 235 | 2.0 | 8.0 | 0.00 | 0.05 | 0.05 | 81 | 1013.7 |
| 20260902182119 | 87 | 225 | 3.0 | 8.0 | 0.00 | 0.05 | 0.05 | 82 | 1013.9 |
| 20260902181919 | 86 | 224 | 3.0 | 8.0 | 0.00 | 0.05 | 0.05 | 82 | 1013.9 |
| 20260902181718 | 86 | 224 | 3.0 | 8.0 | 0.00 | 0.05 | 0.05 | 82 | 1013.9 |
| 20260902181518 | 86 | 194 | 4.0 | 8.0 | 0.00 | 0.05 | 0.05 | 81 | 1013.9 |
| 20260902181318 | 86 | 227 | 3.0 | 8.0 | 0.00 | 0.05 | 0.05 | 81 | 1013.8 |
| 20260902181118 | 86 | 222 | 3.0 | 8.0 | 0.00 | 0.05 | 0.05 | 82 | 1013.8 |
| 20260902180917 | 86 | 216 | 3.0 | 8.0 | 0.00 | 0.05 | 0.05 | 82 | 1013.7 |
| 20260902180717 | 86 | 197 | 3.0 | 9.0 | 0.00 | 0.05 | 0.05 | 82 | 1013.6 |
| 20260902180517 | 86 | 199 | 4.0 | 9.0 | 0.00 | 0.05 | 0.05 | 82 | 1013.4 |
| 20260902180316 | 86 | 218 | 3.0 | 9.0 | 0.00 | 0.05 | 0.05 | 82 | 1013.4 |
| 20260902180116 | 86 | 212 | 4.0 | 9.0 | 0.00 | 0.05 | 0.05 | 83 | 1013.4 |
| 20260902175916 | 86 | 220 | 5.0 | 9.0 | 0.00 | 0.05 | 0.05 | 83 | 1013.3 |
| 20260902175715 | 85 | 200 | 4.0 | 7.0 | 0.00 | 0.05 | 0.05 | 83 | 1013.2 |
| 20260902175515 | 85 | 207 | 4.0 | 8.0 | 0.00 | 0.05 | 0.05 | 83 | 1013.2 |
| 20260902175315 | 85 | 226 | 3.0 | 12.0 | 0.00 | 0.05 | 0.05 | 84 | 1013.2 |
| 20260902175114 | 85 | 223 | 2.0 | 13.0 | 0.00 | 0.05 | 0.05 | 84 | 1013.2 |
| 20260902174914 | 84 | 210 | 3.0 | 13.0 | 0.00 | 0.05 | 0.05 | 84 | 1013.3 |
| 20260902174714 | 84 | 228 | 4.0 | 13.0 | 0.00 | 0.05 | 0.05 | 84 | 1013.3 |
| 20260902174513 | 84 | 231 | 4.0 | 13.0 | 0.00 | 0.05 | 0.05 | 84 | 1013.4 |
| 20260902174313 | 84 | 227 | 3.0 | 12.0 | 0.00 | 0.05 | 0.05 | 84 | 1013.4 |
| 20260902174113 | 84 | 222 | 4.0 | 12.0 | 0.00 | 0.05 | 0.05 | 84 | 1013.4 |
| 20260902173912 | 84 | 215 | 3.0 | 10.0 | 0.00 | 0.05 | 0.05 | 85 | 1013.4 |
| 20260902173712 | 84 | 222 | 5.0 | 10.0 | 0.00 | 0.05 | 0.05 | 85 | 1013.5 |
| 20260902173512 | 83 | 209 | 4.0 | 8.0 | 0.00 | 0.05 | 0.05 | 86 | 1013.4 |
| 20260902173312 | 83 | 184 | 3.0 | 10.0 | 0.00 | 0.05 | 0.05 | 86 | 1013.6 |
| 20260902173111 | 83 | 180 | 2.0 | 10.0 | 0.00 | 0.05 | 0.05 | 86 | 1013.7 |
| 20260902172911 | 83 | 232 | 2.0 | 10.0 | 0.00 | 0.05 | 0.05 | 86 | 1013.7 |
| 20260902172711 | 82 | 213 | 4.0 | 10.0 | 0.00 | 0.05 | 0.05 | 86 | 1013.8 |
| 20260902172510 | 82 | 226 | 4.0 | 11.0 | 0.00 | 0.05 | 0.05 | 86 | 1013.9 |
| 20260902172310 | 82 | 238 | 2.0 | 11.0 | 0.00 | 0.05 | 0.05 | 87 | 1013.9 |
| 20260902172110 | 82 | 228 | 3.0 | 11.0 | 0.00 | 0.05 | 0.05 | 87 | 1014.0 |
| 20260902171909 | 82 | 217 | 4.0 | 11.0 | 0.00 | 0.05 | 0.05 | 87 | 1014.1 |
| 20260902171709 | 82 | 223 | 2.0 | 9.0 | 0.00 | 0.05 | 0.05 | 87 | 1014.1 |
| 20260902171509 | 82 | 226 | 4.0 | 11.0 | 0.00 | 0.05 | 0.05 | 87 | 1014.1 |
| 20260902171308 | 82 | 195 | 3.0 | 11.0 | 0.00 | 0.05 | 0.05 | 86 | 1014.3 |
| 20260902171108 | 82 | 212 | 3.0 | 11.0 | 0.00 | 0.05 | 0.05 | 86 | 1014.2 |
| 20260902170908 | 82 | 213 | 4.0 | 11.0 | 0.00 | 0.05 | 0.05 | 86 | 1014.1 |
| 20260902170707 | 82 | 250 | 2.0 | 11.0 | 0.00 | 0.05 | 0.05 | 87 | 1014.1 |
| 20260902170507 | 82 | 284 | 2.0 | 8.0 | 0.00 | 0.05 | 0.05 | 87 | 1014.2 |
| 20260902170307 | 82 | 251 | 3.0 | 8.0 | 0.00 | 0.05 | 0.05 | 86 | 1014.3 |
| 20260902170107 | 82 | 206 | 2.0 | 8.0 | 0.00 | 0.05 | 0.05 | 87 | 1014.3 |
| 20260902165906 | 82 | 201 | 4.0 | 8.0 | 0.00 | 0.05 | 0.05 | 87 | 1014.4 |
| 20260902165706 | 82 | 217 | 3.0 | 8.0 | 0.00 | 0.05 | 0.05 | 87 | 1014.3 |
| 20260902165506 | 82 | 233 | 2.0 | 8.0 | 0.00 | 0.05 | 0.05 | 88 | 1014.3 |
| 20260902165309 | 81 | 215 | 2.0 | 8.0 | 0.00 | 0.05 | 0.05 | 88 | 1014.3 |
| 20260902165105 | 81 | 202 | 3.0 | 8.0 | 0.00 | 0.05 | 0.05 | 88 | 1014.4 |
| 20260902164905 | 81 | 215 | 3.0 | 8.0 | 0.00 | 0.05 | 0.05 | 88 | 1014.6 |
| 20260902164704 | 81 | 224 | 3.0 | 7.0 | 0.00 | 0.05 | 0.05 | 90 | 1014.6 |
| 20260902164504 | 80 | 225 | 4.0 | 7.0 | 0.00 | 0.05 | 0.05 | 89 | 1014.7 |
| 20260902164304 | 80 | 218 | 2.0 | 7.0 | 0.00 | 0.05 | 0.05 | 90 | 1014.8 |
| 20260902164103 | 80 | 207 | 3.0 | 7.0 | 0.00 | 0.05 | 0.05 | 90 | 1014.8 |
| 20260902163903 | 80 | 220 | 3.0 | 7.0 | 0.00 | 0.05 | 0.05 | 90 | 1014.8 |
| 20260902163703 | 80 | 235 | 2.0 | 7.0 | 0.00 | 0.05 | 0.05 | 91 | 1014.8 |
| 20260902163503 | 79 | 226 | 2.0 | 7.0 | 0.00 | 0.05 | 0.05 | 91 | 1014.9 |
| 20260902163302 | 79 | 202 | 3.0 | 7.0 | 0.00 | 0.05 | 0.05 | 91 | 1014.9 |
| 20260902163102 | 79 | 191 | 3.0 | 7.0 | 0.00 | 0.05 | 0.05 | 90 | 1014.9 |
| 20260902162902 | 79 | 229 | 3.0 | 7.0 | 0.00 | 0.05 | 0.05 | 90 | 1015.0 |
| 20260902162701 | 79 | 189 | 3.0 | 7.0 | 0.00 | 0.05 | 0.05 | 90 | 1015.0 |
| 20260902162501 | 79 | 173 | 2.0 | 7.0 | 0.00 | 0.05 | 0.05 | 91 | 1015.0 |
| 20260902162301 | 79 | 214 | 2.0 | 6.0 | 0.00 | 0.05 | 0.05 | 92 | 1015.1 |
| 20260902162100 | 78 | 256 | 2.0 | 6.0 | 0.00 | 0.05 | 0.05 | 93 | 1015.1 |
| 20260902161900 | 78 | 261 | 2.0 | 5.0 | 0.00 | 0.05 | 0.05 | 93 | 1015.0 |
| 20260902161700 | 78 | 235 | 1.0 | 6.0 | 0.00 | 0.05 | 0.05 | 94 | 1015.1 |
| 20260902161459 | 77 | 209 | 1.0 | 6.0 | 0.00 | 0.05 | 0.05 | 95 | 1015.0 |
| 20260902161259 | 77 | 230 | 2.0 | 6.0 | 0.00 | 0.05 | 0.05 | 95 | 1015.0 |
| 20260902161059 | 76 | 226 | 2.0 | 6.0 | 0.00 | 0.05 | 0.05 | 95 | 1015.0 |
| 20260902160858 | 76 | 181 | 1.0 | 6.0 | 0.00 | 0.05 | 0.05 | 96 | 1015.1 |
| 20260902160658 | 76 | 197 | 2.0 | 5.0 | 0.00 | 0.05 | 0.05 | 96 | 1015.1 |
| 20260902160458 | 76 | 234 | 1.0 | 5.0 | 0.01 | 0.05 | 0.05 | 95 | 1015.2 |
| 20260902160258 | 76 | 228 | 2.0 | 5.0 | 0.02 | 0.05 | 0.05 | 96 | 1015.2 |
| 20260902160057 | 75 | 202 | 2.0 | 5.0 | 0.05 | 0.05 | 0.05 | 96 | 1015.2 |
| 20260902155857 | 75 | 249 | 2.0 | 5.0 | 0.05 | 0.05 | 0.05 | 96 | 1015.3 |
| 20260902155657 | 75 | 214 | 2.0 | 5.0 | 0.05 | 0.05 | 0.05 | 96 | 1015.2 |
| 20260902155456 | 75 | 197 | 2.0 | 5.0 | 0.05 | 0.05 | 0.05 | 96 | 1015.2 |
| 20260902155256 | 75 | 195 | 2.0 | 5.0 | 0.05 | 0.05 | 0.05 | 97 | 1015.2 |
| 20260902155056 | 75 | 220 | 2.0 | 5.0 | 0.05 | 0.05 | 0.05 | 97 | 1015.2 |
| 20260902154855 | 75 | 239 | 1.0 | 5.0 | 0.05 | 0.05 | 0.05 | 97 | 1015.2 |
| 20260902154655 | 75 | 243 | 1.0 | 5.0 | 0.05 | 0.05 | 0.05 | 97 | 1015.2 |
| 20260902154455 | 74 | 222 | 2.0 | 5.0 | 0.05 | 0.05 | 0.05 | 97 | 1015.1 |
| 20260902154254 | 74 | 225 | 2.0 | 6.0 | 0.05 | 0.05 | 0.05 | 97 | 1015.1 |
| 20260902154054 | 74 | 230 | 1.0 | 6.0 | 0.05 | 0.05 | 0.05 | 97 | 1015.1 |
| 20260902153854 | 74 | 217 | 1.0 | 6.0 | 0.05 | 0.05 | 0.05 | 97 | 1015.1 |
| 20260902153653 | 74 | 238 | 2.0 | 6.0 | 0.05 | 0.05 | 0.05 | 98 | 1015.0 |
| 20260902153453 | 74 | 254 | 2.0 | 6.0 | 0.05 | 0.05 | 0.05 | 98 | 1015.0 |
| 20260902153253 | 74 | 235 | 1.0 | 4.0 | 0.05 | 0.05 | 0.05 | 98 | 1015.0 |
| 20260902153052 | 74 | 229 | 2.0 | 6.0 | 0.05 | 0.05 | 0.05 | 98 | 1015.1 |
| 20260902152852 | 74 | 224 | 1.0 | 6.0 | 0.05 | 0.05 | 0.05 | 98 | 1015.0 |
| 20260902152652 | 74 | 225 | 1.0 | 6.0 | 0.05 | 0.05 | 0.05 | 98 | 1015.1 |
| 20260902152452 | 74 | 210 | 2.0 | 7.0 | 0.05 | 0.05 | 0.05 | 97 | 1015.0 |
| 20260902152251 | 74 | 204 | 3.0 | 7.0 | 0.05 | 0.05 | 0.05 | 97 | 1015.1 |
| 20260902152051 | 74 | 214 | 2.0 | 7.0 | 0.05 | 0.05 | 0.05 | 97 | 1015.1 |
| 20260902151851 | 74 | 217 | 2.0 | 7.0 | 0.05 | 0.05 | 0.05 | 97 | 1015.0 |
| 20260902151650 | 74 | 215 | 3.0 | 7.0 | 0.05 | 0.05 | 0.05 | 97 | 1015.0 |
| 20260902151450 | 74 | 211 | 1.0 | 7.0 | 0.05 | 0.05 | 0.05 | 97 | 1015.0 |
| 20260902151250 | 75 | 213 | 2.0 | 5.0 | 0.05 | 0.05 | 0.05 | 97 | 1015.0 |
| 20260902151049 | 75 | 220 | 2.0 | 5.0 | 0.05 | 0.05 | 0.05 | 97 | 1015.0 |
| 20260902150849 | 75 | 215 | 3.0 | 5.0 | 0.05 | 0.05 | 0.05 | 96 | 1015.0 |
| 20260902150649 | 75 | 225 | 2.0 | 5.0 | 0.05 | 0.05 | 0.05 | 96 | 1015.0 |
| 20260902150448 | 76 | 205 | 0.0 | 5.0 | 0.04 | 0.04 | 0.04 | 96 | 1014.8 |
| 20260902150248 | 76 | 218 | 1.0 | 5.0 | 0.03 | 0.03 | 0.03 | 96 | 1014.6 |
| 20260902150048 | 76 | 237 | 1.0 | 5.0 | 0.00 | 0.00 | 0.00 | 96 | 1014.8 |
| 20260902145848 | 76 | 238 | 1.0 | 2.0 | 0.00 | 0.00 | 0.00 | 96 | 1015.2 |
| 20260902145647 | 76 | 238 | 1.0 | 2.0 | 0.00 | 0.00 | 0.00 | 96 | 1015.3 |
| 20260902145447 | 76 | 239 | 1.0 | 2.0 | 0.00 | 0.00 | 0.00 | 96 | 1015.2 |
| 20260902145247 | 76 | 233 | 0.0 | 3.0 | 0.00 | 0.00 | 0.00 | 96 | 1015.3 |
| 20260902145046 | 76 | 229 | 1.0 | 3.0 | 0.00 | 0.00 | 0.00 | 96 | 1015.3 |
| 20260902144846 | 76 | 228 | 0.0 | 3.0 | 0.00 | 0.00 | 0.00 | 96 | 1015.2 |
| 20260902144646 | 76 | 228 | 1.0 | 3.0 | 0.00 | 0.00 | 0.00 | 96 | 1015.2 |
| 20260902144445 | 76 | 228 | 1.0 | 3.0 | 0.00 | 0.00 | 0.00 | 96 | 1015.2 |
| 20260902144245 | 76 | 228 | 1.0 | 3.0 | 0.00 | 0.00 | 0.00 | 96 | 1015.3 |
| 20260902144045 | 76 | 228 | 1.0 | 2.0 | 0.00 | 0.00 | 0.00 | 96 | 1015.3 |
| 20260902143844 | 76 | 228 | 0.0 | 2.0 | 0.00 | 0.00 | 0.00 | 96 | 1015.3 |
| 20260902143644 | 75 | 228 | 1.0 | 2.0 | 0.00 | 0.00 | 0.00 | 96 | 1015.1 |
| 20260902143444 | 75 | 228 | 0.0 | 2.0 | 0.00 | 0.00 | 0.00 | 96 | 1015.1 |
| 20260902143243 | 75 | 228 | 0.0 | 1.0 | 0.00 | 0.00 | 0.00 | 97 | 1015.0 |
| 20260902143043 | 75 | 0 | 0.0 | 2.0 | 0.00 | 0.00 | 0.00 | 97 | 1015.1 |
| 20260902142843 | 75 | 228 | 0.0 | 2.0 | 0.00 | 0.00 | 0.00 | 97 | 1015.0 |
| 20260902142643 | 75 | 228 | 0.0 | 2.0 | 0.00 | 0.00 | 0.00 | 97 | 1015.0 |
| 20260902142442 | 75 | 228 | 0.0 | 2.0 | 0.00 | 0.00 | 0.00 | 97 | 1015.1 |
| 20260902142242 | 75 | 228 | 1.0 | 2.0 | 0.00 | 0.00 | 0.00 | 97 | 1015.1 |
| 20260902142042 | 75 | 228 | 0.0 | 2.0 | 0.00 | 0.00 | 0.00 | 98 | 1015.2 |
| 20260902141841 | 75 | 228 | 0.0 | 1.0 | 0.00 | 0.00 | 0.00 | 98 | 1015.2 |
| 20260902141641 | 74 | 228 | 0.0 | 4.0 | 0.00 | 0.00 | 0.00 | 98 | 1015.2 |
| 20260902141441 | 74 | 227 | 0.0 | 4.0 | 0.00 | 0.00 | 0.00 | 98 | 1015.2 |
| 20260902141240 | 74 | 227 | 0.0 | 4.0 | 0.00 | 0.00 | 0.00 | 98 | 1015.3 |
| 20260902141040 | 74 | 223 | 0.0 | 4.0 | 0.00 | 0.00 | 0.00 | 98 | 1015.2 |
| 20260902140840 | 74 | 221 | 1.0 | 4.0 | 0.00 | 0.00 | 0.00 | 98 | 1015.2 |
| 20260902140639 | 74 | 227 | 0.0 | 4.0 | 0.00 | 0.00 | 0.00 | 99 | 1015.3 |
| 20260902140439 | 74 | 0 | 0.0 | 1.0 | 0.00 | 0.00 | 0.00 | 99 | 1015.3 |
| 20260902140239 | 74 | 227 | 0.0 | 1.0 | 0.00 | 0.00 | 0.00 | 99 | 1015.3 |
| 20260902140038 | 74 | 78 | 0.0 | 2.0 | 0.00 | 0.00 | 0.00 | 99 | 1015.3 |
| 20260902135838 | 73 | 73 | 0.0 | 2.0 | 0.00 | 0.00 | 0.00 | 99 | 1015.3 |
| 20260902135638 | 73 | 0 | 0.0 | 2.0 | 0.00 | 0.00 | 0.00 | 99 | 1015.3 |
| 20260902135438 | 73 | 0 | 0.0 | 2.0 | 0.00 | 0.00 | 0.00 | 99 | 1015.3 |
| 20260902135237 | 73 | 72 | 0.0 | 2.0 | 0.00 | 0.00 | 0.00 | 99 | 1015.2 |
| 20260902135037 | 73 | 62 | 0.0 | 2.0 | 0.00 | 0.00 | 0.00 | 100 | 1015.2 |
| 20260902134837 | 73 | 72 | 0.0 | 2.0 | 0.00 | 0.00 | 0.00 | 99 | 1015.2 |
| 20260902134636 | 73 | 230 | 0.0 | 2.0 | 0.00 | 0.00 | 0.00 | 100 | 1015.2 |
| 20260902134436 | 73 | 240 | 0.0 | 2.0 | 0.00 | 0.00 | 0.00 | 100 | 1015.2 |
| 20260902134236 | 73 | 253 | 0.0 | 2.0 | 0.00 | 0.00 | 0.00 | 100 | 1015.2 |
| 20260902134035 | 73 | 21 | 0.0 | 1.0 | 0.00 | 0.00 | 0.00 | 100 | 1015.2 |
| 20260902133835 | 73 | 21 | 0.0 | 1.0 | 0.00 | 0.00 | 0.00 | 100 | 1015.2 |
| 20260902133635 | 73 | 21 | 0.0 | 1.0 | 0.00 | 0.00 | 0.00 | 100 | 1015.2 |
| 20260902133434 | 73 | 22 | 0.0 | 1.0 | 0.00 | 0.00 | 0.00 | 100 | 1015.2 |
| 20260902133234 | 73 | 26 | 0.0 | 1.0 | 0.00 | 0.00 | 0.00 | 100 | 1015.3 |
| 20260902133034 | 73 | 27 | 0.0 | 1.0 | 0.00 | 0.00 | 0.00 | 100 | 1015.2 |
| 20260902132833 | 73 | 27 | 0.0 | 1.0 | 0.00 | 0.00 | 0.00 | 100 | 1015.2 |
| 20260902132633 | 73 | 27 | 0.0 | 1.0 | 0.00 | 0.00 | 0.00 | 100 | 1015.2 |
| 20260902132433 | 73 | 0 | 0.0 | 1.0 | 0.00 | 0.00 | 0.00 | 100 | 1015.2 |
| 20260902132232 | 73 | 0 | 0.0 | 1.0 | 0.00 | 0.00 | 0.00 | 100 | 1015.2 |
| 20260902132032 | 73 | 0 | 0.0 | 1.0 | 0.00 | 0.00 | 0.00 | 100 | 1015.1 |
| 20260902131832 | 73 | 27 | 0.0 | 1.0 | 0.00 | 0.00 | 0.00 | 100 | 1015.2 |
| 20260902131632 | 72 | 27 | 0.0 | 1.0 | 0.00 | 0.00 | 0.00 | 100 | 1015.2 |
| 20260902131431 | 72 | 27 | 0.0 | 1.0 | 0.00 | 0.00 | 0.00 | 100 | 1015.1 |
| 20260902131231 | 73 | 27 | 0.0 | 1.0 | 0.00 | 0.00 | 0.00 | 100 | 1015.1 |
| 20260902131031 | 73 | 27 | 0.0 | 1.0 | 0.00 | 0.00 | 0.00 | 100 | 1015.1 |
| 20260902130830 | 73 | 0 | 0.0 | 1.0 | 0.00 | 0.00 | 0.00 | 100 | 1015.1 |
| 20260902130630 | 73 | 27 | 0.0 | 1.0 | 0.00 | 0.00 | 0.00 | 100 | 1015.1 |
| 20260902130430 | 73 | 27 | 0.0 | 1.0 | 0.00 | 0.00 | 0.00 | 100 | 1015.1 |
| 20260902130229 | 73 | 0 | 0.0 | 1.0 | 0.00 | 0.00 | 0.00 | 100 | 1015.1 |
| 20260902130029 | 73 | 0 | 0.0 | 1.0 | 0.00 | 0.00 | 0.00 | 100 | 1015.0 |
| 20260902125829 | 73 | 0 | 0.0 | 2.0 | 0.00 | 0.00 | 0.00 | 100 | 1015.0 |
| 20260902125628 | 73 | 27 | 0.0 | 2.0 | 0.00 | 0.00 | 0.00 | 100 | 1015.0 |
| 20260902125428 | 73 | 0 | 0.0 | 2.0 | 0.00 | 0.00 | 0.00 | 100 | 1015.1 |
| 20260902125228 | 73 | 49 | 0.0 | 2.0 | 0.00 | 0.00 | 0.00 | 100 | 1015.0 |
| 20260902125027 | 73 | 49 | 0.0 | 2.0 | 0.00 | 0.00 | 0.00 | 100 | 1015.0 |
| 20260902124827 | 73 | 220 | 0.0 | 1.0 | 0.00 | 0.00 | 0.00 | 100 | 1014.9 |
| 20260902124627 | 73 | 220 | 0.0 | 1.0 | 0.00 | 0.00 | 0.00 | 100 | 1014.9 |
| 20260902124427 | 73 | 220 | 0.0 | 1.0 | 0.00 | 0.00 | 0.00 | 100 | 1014.9 |
| 20260902124226 | 73 | 220 | 0.0 | 1.0 | 0.00 | 0.00 | 0.00 | 100 | 1014.8 |
| 20260902124026 | 73 | 0 | 0.0 | 1.0 | 0.00 | 0.00 | 0.00 | 100 | 1014.8 |
| 20260902123826 | 73 | 0 | 0.0 | 1.0 | 0.00 | 0.00 | 0.00 | 100 | 1014.8 |
| 20260902123625 | 73 | 0 | 0.0 | 1.0 | 0.00 | 0.00 | 0.00 | 100 | 1014.8 |
| 20260902123425 | 73 | 220 | 0.0 | 1.0 | 0.00 | 0.00 | 0.00 | 100 | 1014.7 |
| 20260902123225 | 73 | 220 | 0.0 | 1.0 | 0.00 | 0.00 | 0.00 | 100 | 1014.8 |
| 20260902123024 | 73 | 0 | 0.0 | 1.0 | 0.00 | 0.00 | 0.00 | 100 | 1014.7 |
| 20260902122824 | 72 | 0 | 0.0 | 1.0 | 0.00 | 0.00 | 0.00 | 100 | 1014.6 |
| 20260902122624 | 72 | 220 | 0.0 | 1.0 | 0.00 | 0.00 | 0.00 | 100 | 1014.6 |
| 20260902122423 | 72 | 220 | 0.0 | 1.0 | 0.00 | 0.00 | 0.00 | 100 | 1014.7 |
| 20260902122223 | 72 | 220 | 0.0 | 1.0 | 0.00 | 0.00 | 0.00 | 100 | 1014.7 |
| 20260902122023 | 72 | 0 | 0.0 | 1.0 | 0.00 | 0.00 | 0.00 | 100 | 1014.8 |
| 20260902121822 | 72 | 220 | 0.0 | 1.0 | 0.00 | 0.00 | 0.00 | 100 | 1014.8 |
| 20260902121622 | 72 | 220 | 0.0 | 1.0 | 0.00 | 0.00 | 0.00 | 100 | 1014.7 |
| 20260902121422 | 72 | 220 | 0.0 | 1.0 | 0.00 | 0.00 | 0.00 | 100 | 1014.7 |
| 20260902121222 | 72 | 220 | 0.0 | 1.0 | 0.00 | 0.00 | 0.00 | 100 | 1014.7 |
| 20260902121021 | 72 | 220 | 0.0 | 1.0 | 0.00 | 0.00 | 0.00 | 100 | 1014.7 |
| 20260902120821 | 72 | 220 | 0.0 | 1.0 | 0.00 | 0.00 | 0.00 | 100 | 1014.8 |
| 20260902120621 | 72 | 220 | 0.0 | 1.0 | 0.00 | 0.00 | 0.00 | 100 | 1014.8 |
| 20260902120420 | 72 | 0 | 0.0 | 1.0 | 0.00 | 0.00 | 0.00 | 100 | 1014.8 |
| 20260902120220 | 72 | 220 | 0.0 | 2.0 | 0.00 | 0.00 | 0.00 | 100 | 1014.7 |
| 20260902120020 | 72 | 220 | 0.0 | 3.0 | 0.00 | 0.00 | 0.00 | 100 | 1014.7 |
| 20260902115819 | 72 | 220 | 0.0 | 3.0 | 0.00 | 0.00 | 0.00 | 100 | 1014.8 |
| 20260902115619 | 72 | 194 | 0.0 | 3.0 | 0.00 | 0.00 | 0.00 | 100 | 1014.9 |
| 20260902115419 | 72 | 185 | 1.0 | 3.0 | 0.00 | 0.00 | 0.00 | 100 | 1014.9 |
| 20260902115218 | 72 | 209 | 1.0 | 3.0 | 0.00 | 0.00 | 0.00 | 100 | 1014.9 |
| 20260902115018 | 72 | 246 | 0.0 | 3.0 | 0.00 | 0.00 | 0.00 | 100 | 1014.9 |
| 20260902114818 | 72 | 246 | 0.0 | 3.0 | 0.00 | 0.00 | 0.00 | 100 | 1014.8 |
| 20260902114618 | 72 | 246 | 1.0 | 4.0 | 0.00 | 0.00 | 0.00 | 100 | 1014.7 |
| 20260902114417 | 72 | 237 | 1.0 | 4.0 | 0.00 | 0.00 | 0.00 | 100 | 1014.7 |
| 20260902114217 | 72 | 205 | 1.0 | 5.0 | 0.00 | 0.00 | 0.00 | 100 | 1014.7 |
| 20260902114017 | 72 | 223 | 1.0 | 6.0 | 0.00 | 0.00 | 0.00 | 100 | 1014.7 |
| 20260902113816 | 72 | 210 | 1.0 | 6.0 | 0.00 | 0.00 | 0.00 | 100 | 1014.7 |
| 20260902113616 | 72 | 197 | 1.0 | 6.0 | 0.00 | 0.00 | 0.00 | 100 | 1014.7 |
| 20260902113416 | 72 | 213 | 2.0 | 6.0 | 0.00 | 0.00 | 0.00 | 100 | 1014.7 |
| 20260902113215 | 72 | 224 | 2.0 | 4.0 | 0.00 | 0.00 | 0.00 | 100 | 1014.7 |
| 20260902113015 | 72 | 226 | 1.0 | 4.0 | 0.00 | 0.00 | 0.00 | 100 | 1014.7 |
| 20260902112815 | 72 | 240 | 1.0 | 4.0 | 0.00 | 0.00 | 0.00 | 100 | 1014.6 |
| 20260902112614 | 71 | 238 | 1.0 | 3.0 | 0.00 | 0.00 | 0.00 | 100 | 1014.6 |
| 20260902112414 | 71 | 234 | 0.0 | 5.0 | 0.00 | 0.00 | 0.00 | 100 | 1014.6 |
| 20260902112214 | 71 | 234 | 0.0 | 5.0 | 0.00 | 0.00 | 0.00 | 100 | 1014.6 |
| 20260902112013 | 71 | 234 | 1.0 | 5.0 | 0.00 | 0.00 | 0.00 | 100 | 1014.6 |
| 20260902111813 | 71 | 224 | 1.0 | 5.0 | 0.00 | 0.00 | 0.00 | 100 | 1014.4 |
| 20260902111613 | 71 | 131 | 1.0 | 5.0 | 0.00 | 0.00 | 0.00 | 100 | 1014.3 |
| 20260902111412 | 71 | 133 | 2.0 | 5.0 | 0.00 | 0.00 | 0.00 | 100 | 1014.2 |
| 20260902111212 | 71 | 230 | 1.0 | 5.0 | 0.00 | 0.00 | 0.00 | 100 | 1014.2 |
| 20260902111012 | 71 | 243 | 2.0 | 6.0 | 0.00 | 0.00 | 0.00 | 100 | 1014.1 |
| 20260902110812 | 71 | 212 | 1.0 | 6.0 | 0.00 | 0.00 | 0.00 | 100 | 1014.0 |
| 20260902110611 | 71 | 201 | 2.0 | 6.0 | 0.00 | 0.00 | 0.00 | 100 | 1013.9 |
| 20260902110411 | 71 | 216 | 3.0 | 6.0 | 0.00 | 0.00 | 0.00 | 100 | 1013.8 |
| 20260902110211 | 71 | 207 | 2.0 | 6.0 | 0.00 | 0.00 | 0.00 | 100 | 1013.8 |
| 20260902110010 | 71 | 204 | 2.0 | 5.0 | 0.00 | 0.00 | 0.00 | 100 | 1013.9 |
| 20260902105810 | 71 | 181 | 2.0 | 6.0 | 0.00 | 0.00 | 0.00 | 100 | 1013.8 |
| 20260902105610 | 71 | 200 | 2.0 | 6.0 | 0.00 | 0.00 | 0.00 | 100 | 1013.8 |
| 20260902105409 | 70 | 182 | 2.0 | 6.0 | 0.00 | 0.00 | 0.00 | 100 | 1013.8 |
| 20260902105209 | 70 | 193 | 3.0 | 6.0 | 0.00 | 0.00 | 0.00 | 100 | 1013.7 |
| 20260902105009 | 70 | 231 | 2.0 | 6.0 | 0.00 | 0.00 | 0.00 | 100 | 1013.7 |
| 20260902104808 | 70 | 242 | 2.0 | 6.0 | 0.00 | 0.00 | 0.00 | 100 | 1013.6 |
| 20260902104608 | 70 | 247 | 2.0 | 6.0 | 0.00 | 0.00 | 0.00 | 100 | 1013.5 |
| 20260902104408 | 70 | 232 | 1.0 | 6.0 | 0.00 | 0.00 | 0.00 | 100 | 1013.4 |
| 20260902104208 | 70 | 218 | 2.0 | 5.0 | 0.00 | 0.00 | 0.00 | 100 | 1013.2 |
| 20260902104007 | 70 | 201 | 2.0 | 5.0 | 0.00 | 0.00 | 0.00 | 100 | 1013.2 |
| 20260902103807 | 70 | 238 | 1.0 | 5.0 | 0.00 | 0.00 | 0.00 | 100 | 1013.2 |
| 20260902103607 | 70 | 247 | 1.0 | 5.0 | 0.00 | 0.00 | 0.00 | 100 | 1013.1 |
| 20260902103406 | 70 | 223 | 2.0 | 5.0 | 0.00 | 0.00 | 0.00 | 100 | 1013.1 |
| 20260902103206 | 70 | 222 | 2.0 | 5.0 | 0.00 | 0.00 | 0.00 | 100 | 1013.1 |
| 20260902103006 | 70 | 222 | 2.0 | 4.0 | 0.00 | 0.00 | 0.00 | 100 | 1013.0 |
| 20260902102805 | 70 | 214 | 2.0 | 4.0 | 0.00 | 0.00 | 0.00 | 100 | 1013.0 |
| 20260902102605 | 70 | 211 | 0.0 | 3.0 | 0.00 | 0.00 | 0.00 | 100 | 1013.0 |
| 20260902102405 | 70 | 218 | 1.0 | 3.0 | 0.00 | 0.00 | 0.00 | 100 | 1013.0 |
| 20260902102204 | 70 | 228 | 1.0 | 3.0 | 0.00 | 0.00 | 0.00 | 100 | 1012.9 |
| 20260902102004 | 70 | 237 | 0.0 | 3.0 | 0.00 | 0.00 | 0.00 | 100 | 1012.9 |
| 20260902101804 | 70 | 236 | 1.0 | 4.0 | 0.00 | 0.00 | 0.00 | 100 | 1012.9 |
| 20260902101603 | 70 | 231 | 0.0 | 4.0 | 0.00 | 0.00 | 0.00 | 100 | 1012.9 |
| 20260902101403 | 70 | 217 | 1.0 | 4.0 | 0.00 | 0.00 | 0.00 | 100 | 1013.0 |
| 20260902101203 | 70 | 214 | 1.0 | 4.0 | 0.00 | 0.00 | 0.00 | 100 | 1013.0 |
| 20260902101002 | 70 | 227 | 1.0 | 4.0 | 0.00 | 0.00 | 0.00 | 100 | 1013.2 |
| 20260902100802 | 70 | 226 | 1.0 | 3.0 | 0.00 | 0.00 | 0.00 | 100 | 1013.2 |
| 20260902100602 | 70 | 244 | 0.0 | 3.0 | 0.00 | 0.00 | 0.00 | 100 | 1013.4 |
| 20260902100402 | 70 | 240 | 1.0 | 4.0 | 0.00 | 0.00 | 0.00 | 100 | 1013.4 |
| 20260902100201 | 70 | 226 | 1.0 | 4.0 | 0.00 | 0.00 | 0.00 | 100 | 1013.4 |
| 20260902100001 | 70 | 233 | 1.0 | 4.0 | 0.00 | 0.00 | 0.00 | 100 | 1013.5 |
| 20260902095801 | 70 | 242 | 1.0 | 4.0 | 0.00 | 0.00 | 0.00 | 100 | 1013.4 |
| 20260902095600 | 70 | 219 | 2.0 | 4.0 | 0.00 | 0.00 | 0.00 | 100 | 1013.5 |
| 20260902095400 | 70 | 234 | 1.0 | 4.0 | 0.00 | 0.00 | 0.00 | 100 | 1013.5 |
| 20260902095200 | 70 | 238 | 1.0 | 4.0 | 0.00 | 0.00 | 0.00 | 100 | 1013.4 |
| 20260902094959 | 70 | 232 | 1.0 | 4.0 | 0.00 | 0.00 | 0.00 | 100 | 1013.4 |
| 20260902094759 | 70 | 246 | 0.0 | 2.0 | 0.00 | 0.00 | 0.00 | 100 | 1013.4 |
| 20260902094559 | 70 | 206 | 1.0 | 4.0 | 0.00 | 0.00 | 0.00 | 100 | 1013.3 |
| 20260902094358 | 70 | 230 | 0.0 | 4.0 | 0.00 | 0.00 | 0.00 | 100 | 1013.3 |
| 20260902094158 | 70 | 222 | 1.0 | 4.0 | 0.00 | 0.00 | 0.00 | 100 | 1013.3 |
| 20260902093958 | 70 | 215 | 1.0 | 4.0 | 0.00 | 0.00 | 0.00 | 100 | 1013.3 |
| 20260902093757 | 70 | 218 | 2.0 | 4.0 | 0.00 | 0.00 | 0.00 | 100 | 1013.2 |
| 20260902093557 | 70 | 231 | 1.0 | 4.0 | 0.00 | 0.00 | 0.00 | 100 | 1013.2 |
| 20260902093357 | 70 | 206 | 1.0 | 5.0 | 0.00 | 0.00 | 0.00 | 100 | 1013.2 |
| 20260902093157 | 70 | 219 | 2.0 | 5.0 | 0.00 | 0.00 | 0.00 | 100 | 1013.4 |
| 20260902092956 | 70 | 220 | 2.0 | 5.0 | 0.00 | 0.00 | 0.00 | 100 | 1013.4 |
| 20260902092756 | 70 | 213 | 2.0 | 5.0 | 0.00 | 0.00 | 0.00 | 100 | 1013.5 |
| 20260902092556 | 70 | 228 | 2.0 | 5.0 | 0.00 | 0.00 | 0.00 | 100 | 1013.5 |
| 20260902092355 | 70 | 221 | 2.0 | 4.0 | 0.00 | 0.00 | 0.00 | 100 | 1013.5 |
| 20260902092155 | 70 | 223 | 1.0 | 4.0 | 0.00 | 0.00 | 0.00 | 100 | 1013.5 |
| 20260902091955 | 70 | 217 | 1.0 | 4.0 | 0.00 | 0.00 | 0.00 | 100 | 1013.6 |
| 20260902091754 | 70 | 220 | 1.0 | 4.0 | 0.00 | 0.00 | 0.00 | 100 | 1013.6 |
| 20260902091554 | 70 | 232 | 1.0 | 4.0 | 0.00 | 0.00 | 0.00 | 100 | 1013.5 |
| 20260902091354 | 70 | 234 | 1.0 | 4.0 | 0.00 | 0.00 | 0.00 | 100 | 1013.5 |
| 20260902091153 | 70 | 237 | 1.0 | 4.0 | 0.00 | 0.00 | 0.00 | 100 | 1013.5 |
| 20260902090953 | 70 | 244 | 1.0 | 5.0 | 0.00 | 0.00 | 0.00 | 100 | 1013.5 |
| 20260902090753 | 69 | 237 | 1.0 | 5.0 | 0.00 | 0.00 | 0.00 | 100 | 1013.5 |
| 20260902090553 | 69 | 214 | 2.0 | 5.0 | 0.00 | 0.00 | 0.00 | 100 | 1013.5 |
| 20260902090352 | 69 | 221 | 2.0 | 5.0 | 0.00 | 0.00 | 0.00 | 100 | 1013.5 |
| 20260902090152 | 69 | 211 | 2.0 | 5.0 | 0.00 | 0.00 | 0.00 | 100 | 1013.6 |
| 20260902085952 | 69 | 217 | 2.0 | 4.0 | 0.00 | 0.00 | 0.00 | 100 | 1013.6 |
| 20260902085751 | 69 | 227 | 2.0 | 4.0 | 0.00 | 0.00 | 0.00 | 100 | 1013.7 |
| 20260902085551 | 69 | 232 | 2.0 | 4.0 | 0.00 | 0.00 | 0.00 | 100 | 1013.7 |
| 20260902085351 | 69 | 232 | 1.0 | 4.0 | 0.00 | 0.00 | 0.00 | 100 | 1013.6 |
| 20260902085150 | 69 | 219 | 1.0 | 4.0 | 0.00 | 0.00 | 0.00 | 100 | 1013.6 |
| 20260902084950 | 69 | 232 | 1.0 | 4.0 | 0.00 | 0.00 | 0.00 | 100 | 1013.6 |
| 20260902084750 | 69 | 219 | 2.0 | 4.0 | 0.00 | 0.00 | 0.00 | 100 | 1013.7 |
| 20260902084549 | 69 | 230 | 2.0 | 4.0 | 0.00 | 0.00 | 0.00 | 100 | 1013.9 |
| 20260902084349 | 69 | 233 | 1.0 | 3.0 | 0.00 | 0.00 | 0.00 | 100 | 1013.9 |
| 20260902084149 | 69 | 235 | 0.0 | 4.0 | 0.00 | 0.00 | 0.00 | 100 | 1014.0 |
| 20260902083948 | 69 | 225 | 1.0 | 5.0 | 0.00 | 0.00 | 0.00 | 100 | 1014.1 |
| 20260902083748 | 69 | 209 | 1.0 | 5.0 | 0.00 | 0.00 | 0.00 | 100 | 1014.1 |
| 20260902083548 | 69 | 214 | 1.0 | 5.0 | 0.00 | 0.00 | 0.00 | 100 | 1013.9 |
| 20260902083348 | 69 | 205 | 1.0 | 5.0 | 0.00 | 0.00 | 0.00 | 100 | 1014.0 |
| 20260902083147 | 69 | 222 | 1.0 | 5.0 | 0.00 | 0.00 | 0.00 | 100 | 1014.0 |
| 20260902082947 | 69 | 223 | 1.0 | 4.0 | 0.00 | 0.00 | 0.00 | 100 | 1014.0 |
| 20260902082747 | 69 | 226 | 1.0 | 4.0 | 0.00 | 0.00 | 0.00 | 100 | 1014.1 |
| 20260902082546 | 69 | 222 | 1.0 | 4.0 | 0.00 | 0.00 | 0.00 | 100 | 1014.1 |
| 20260902082346 | 69 | 231 | 1.0 | 4.0 | 0.00 | 0.00 | 0.00 | 100 | 1014.1 |
| 20260902082146 | 69 | 50 | 0.0 | 2.0 | 0.00 | 0.00 | 0.00 | 100 | 1014.1 |
| 20260902081945 | 69 | 50 | 0.0 | 1.0 | 0.00 | 0.00 | 0.00 | 100 | 1014.0 |
| 20260902081745 | 69 | 50 | 0.0 | 1.0 | 0.00 | 0.00 | 0.00 | 100 | 1013.9 |
| 20260902081545 | 69 | 51 | 0.0 | 1.0 | 0.00 | 0.00 | 0.00 | 100 | 1014.0 |
| 20260902081344 | 69 | 51 | 0.0 | 1.0 | 0.00 | 0.00 | 0.00 | 100 | 1014.0 |
| 20260902081144 | 69 | 0 | 0.0 | 1.0 | 0.00 | 0.00 | 0.00 | 100 | 1013.9 |
| 20260902080944 | 69 | 0 | 0.0 | 1.0 | 0.00 | 0.00 | 0.00 | 100 | 1013.9 |
| 20260902080743 | 69 | 0 | 0.0 | 1.0 | 0.00 | 0.00 | 0.00 | 100 | 1014.1 |
| 20260902080543 | 69 | 232 | 0.0 | 1.0 | 0.00 | 0.00 | 0.00 | 100 | 1014.2 |
| 20260902080343 | 69 | 232 | 0.0 | 1.0 | 0.00 | 0.00 | 0.00 | 100 | 1014.3 |
| 20260902080143 | 69 | 0 | 0.0 | 1.0 | 0.00 | 0.00 | 0.00 | 100 | 1014.4 |
| 20260902075942 | 69 | 0 | 0.0 | 0.0 | 0.00 | 0.00 | 0.00 | 100 | 1014.4 |
| 20260902075742 | 69 | 0 | 0.0 | 0.0 | 0.00 | 0.00 | 0.00 | 100 | 1014.4 |
| 20260902075542 | 69 | 0 | 0.0 | 0.0 | 0.00 | 0.00 | 0.00 | 100 | 1014.3 |
| 20260902075341 | 69 | 0 | 0.0 | 0.0 | 0.00 | 0.00 | 0.00 | 100 | 1014.3 |
| 20260902075141 | 69 | 0 | 0.0 | 0.0 | 0.00 | 0.00 | 0.00 | 100 | 1014.4 |
| 20260902074941 | 69 | 0 | 0.0 | 0.0 | 0.00 | 0.00 | 0.00 | 100 | 1014.4 |
| 20260902074740 | 69 | 0 | 0.0 | 0.0 | 0.00 | 0.00 | 0.00 | 100 | 1014.4 |
| 20260902074540 | 69 | 0 | 0.0 | 0.0 | 0.00 | 0.00 | 0.00 | 100 | 1014.4 |
| 20260902074340 | 69 | 0 | 0.0 | 0.0 | 0.00 | 0.00 | 0.00 | 100 | 1014.4 |
| 20260902074139 | 69 | 0 | 0.0 | 0.0 | 0.00 | 0.00 | 0.00 | 100 | 1014.4 |
| 20260902073939 | 69 | 0 | 0.0 | 0.0 | 0.00 | 0.00 | 0.00 | 100 | 1014.5 |
| 20260902073739 | 69 | 0 | 0.0 | 0.0 | 0.00 | 0.00 | 0.00 | 100 | 1014.5 |
| 20260902073538 | 69 | 0 | 0.0 | 0.0 | 0.00 | 0.00 | 0.00 | 100 | 1014.5 |
| 20260902073338 | 69 | 0 | 0.0 | 0.0 | 0.00 | 0.00 | 0.00 | 100 | 1014.5 |
| 20260902073138 | 69 | 0 | 0.0 | 0.0 | 0.00 | 0.00 | 0.00 | 100 | 1014.5 |
| 20260902072938 | 69 | 0 | 0.0 | 0.0 | 0.00 | 0.00 | 0.00 | 100 | 1014.5 |
| 20260902072737 | 69 | 0 | 0.0 | 0.0 | 0.00 | 0.00 | 0.00 | 100 | 1014.5 |
| 20260902072537 | 69 | 0 | 0.0 | 0.0 | 0.00 | 0.00 | 0.00 | 100 | 1014.6 |
| 20260902072337 | 69 | 0 | 0.0 | 0.0 | 0.00 | 0.00 | 0.00 | 100 | 1014.7 |
| 20260902072136 | 69 | 0 | 0.0 | 0.0 | 0.00 | 0.00 | 0.00 | 100 | 1014.7 |
| 20260902071936 | 69 | 0 | 0.0 | 0.0 | 0.00 | 0.00 | 0.00 | 100 | 1014.6 |
| 20260902071736 | 69 | 0 | 0.0 | 0.0 | 0.00 | 0.00 | 0.00 | 100 | 1014.5 |
| 20260902071535 | 69 | 0 | 0.0 | 0.0 | 0.00 | 0.00 | 0.00 | 100 | 1014.4 |
| 20260902071335 | 69 | 0 | 0.0 | 0.0 | 0.00 | 0.00 | 0.00 | 100 | 1014.4 |
| 20260902071135 | 69 | 0 | 0.0 | 0.0 | 0.00 | 0.00 | 0.00 | 100 | 1014.4 |
| 20260902070934 | 69 | 0 | 0.0 | 0.0 | 0.00 | 0.00 | 0.00 | 100 | 1014.4 |
| 20260902070734 | 69 | 0 | 0.0 | 0.0 | 0.00 | 0.00 | 0.00 | 100 | 1014.3 |
| 20260902070534 | 69 | 0 | 0.0 | 1.0 | 0.00 | 0.00 | 0.00 | 100 | 1014.4 |
| 20260902070334 | 69 | 0 | 0.0 | 2.0 | 0.00 | 0.00 | 0.00 | 100 | 1014.5 |
| 20260902070133 | 69 | 0 | 0.0 | 2.0 | 0.00 | 0.00 | 0.00 | 100 | 1014.5 |
| 20260902065933 | 69 | 0 | 0.0 | 2.0 | 0.00 | 0.00 | 0.00 | 100 | 1014.6 |
| 20260902065733 | 69 | 12 | 0.0 | 2.0 | 0.00 | 0.00 | 0.00 | 100 | 1014.7 |
| 20260902065532 | 69 | 12 | 0.0 | 2.0 | 0.00 | 0.00 | 0.00 | 100 | 1014.8 |
| 20260902065332 | 69 | 12 | 0.0 | 1.0 | 0.00 | 0.00 | 0.00 | 100 | 1014.8 |
| 20260902065132 | 69 | 0 | 0.0 | 1.0 | 0.00 | 0.00 | 0.00 | 100 | 1014.9 |
| 20260902064931 | 69 | 0 | 0.0 | 0.0 | 0.00 | 0.00 | 0.00 | 100 | 1014.8 |
| 20260902064731 | 69 | 0 | 0.0 | 1.0 | 0.00 | 0.00 | 0.00 | 100 | 1014.8 |
| 20260902064531 | 69 | 0 | 0.0 | 2.0 | 0.00 | 0.00 | 0.00 | 100 | 1014.7 |
| 20260902064330 | 69 | 0 | 0.0 | 2.0 | 0.00 | 0.00 | 0.00 | 100 | 1014.8 |
| 20260902064130 | 69 | 12 | 0.0 | 2.0 | 0.00 | 0.00 | 0.00 | 100 | 1014.8 |
| 20260902063930 | 69 | 12 | 0.0 | 2.0 | 0.00 | 0.00 | 0.00 | 100 | 1014.7 |
| 20260902063730 | 69 | 12 | 0.0 | 2.0 | 0.00 | 0.00 | 0.00 | 100 | 1014.8 |
| 20260902063529 | 69 | 0 | 0.0 | 0.0 | 0.00 | 0.00 | 0.00 | 100 | 1014.8 |
| 20260902063329 | 69 | 0 | 0.0 | 0.0 | 0.00 | 0.00 | 0.00 | 100 | 1014.8 |
| 20260902063129 | 69 | 0 | 0.0 | 0.0 | 0.00 | 0.00 | 0.00 | 100 | 1014.7 |
| 20260902062928 | 69 | 0 | 0.0 | 0.0 | 0.00 | 0.00 | 0.00 | 100 | 1014.7 |
| 20260902062728 | 69 | 0 | 0.0 | 0.0 | 0.00 | 0.00 | 0.00 | 100 | 1014.7 |
| 20260902062528 | 69 | 0 | 0.0 | 0.0 | 0.00 | 0.00 | 0.00 | 100 | 1014.8 |
| 20260902062327 | 69 | 0 | 0.0 | 0.0 | 0.00 | 0.00 | 0.00 | 100 | 1014.8 |
| 20260902062127 | 69 | 0 | 0.0 | 0.0 | 0.00 | 0.00 | 0.00 | 100 | 1014.7 |
| 20260902061927 | 69 | 0 | 0.0 | 0.0 | 0.00 | 0.00 | 0.00 | 100 | 1014.7 |
| 20260902061726 | 69 | 0 | 0.0 | 0.0 | 0.00 | 0.00 | 0.00 | 100 | 1014.7 |